User: anonymous
Location: Sherrills_Ford_Terrell
(35.6000°N, 80.9830°W)
Time: 09:32:53
(UTC-04:00)
Language:

CZ-4B R/B - Orbit

View from above orbital plane
View from above orbital plane
View from above satellite
View from above satellite

Ground track
Ground track

The orbit data is extracted from the following two-line orbital elements,

1 29093U 06015B   14260.01375804  .00008053  00000-0  28935-3 0  3918
2 29093 097.5158 339.8668 0087877 298.6499 111.7872 15.25275735463571
Epoch (UTC): 17 September 2014 00:19:48
Eccentricity: 0.0087877
inclination: 97.5158°
perigee height: 429 km
apogee height: 550 km
right ascension of ascending node: 339.8668°
argument of perigee: 298.6499°
revolutions per day: 15.25275735
mean anomaly at epoch: 111.7872°
orbit number at epoch: 46357

The dashed part of the orbit path shows where the satellite is in the earth's shadow,  

DLR